| time (UTC) | temp F | wind direction | speed MPH | gust MPH | rain 1hr in | rain 24hr in | rain mn in | humidity % | barometer mb |
| 20260902223017 | 150 | 23 | 3.0 | 6.0 | 0.00 | 0.00 | 0.00 | 100 | 1010.6 |
| 20260902222501 | 150 | 226 | 0.0 | 0.0 | 0.00 | 0.00 | 0.00 | 100 | 1010.7 |
| 20260902222222 | 150 | 226 | 0.0 | 0.0 | 0.00 | 0.00 | 0.00 | 100 | 1010.8 |
| 20260902221417 | 150 | 226 | 0.0 | 7.0 | 0.00 | 0.00 | 0.00 | 100 | 1010.7 |
| 20260902220858 | 150 | 226 | 0.0 | 7.0 | 0.00 | 0.00 | 0.00 | 100 | 1010.8 |
| 20260902220342 | 149 | 225 | 0.0 | 7.0 | 0.00 | 0.00 | 0.00 | 100 | 1010.9 |
| 20260902220055 | 149 | 250 | 1.0 | 7.0 | 0.00 | 0.00 | 0.00 | 100 | 1010.9 |
| 20260902215256 | 149 | 147 | 0.0 | 7.0 | 0.00 | 0.00 | 0.00 | 100 | 1010.9 |
| 20260902214744 | 149 | 229 | 3.0 | 7.0 | 0.00 | 0.00 | 0.00 | 100 | 1010.9 |
| 20260902214516 | 150 | 199 | 2.0 | 7.0 | 0.00 | 0.00 | 0.00 | 100 | 1011.0 |
| 20260902213742 | 150 | 255 | 2.0 | 7.0 | 0.00 | 0.00 | 0.00 | 100 | 1011.0 |
| 20260902213244 | 150 | 36 | 0.0 | 0.0 | 0.00 | 0.00 | 0.00 | 100 | 1011.0 |
| 20260902212743 | 149 | 36 | 0.0 | 0.0 | 0.00 | 0.00 | 0.00 | 100 | 1011.0 |
| 20260902212223 | 149 | 36 | 0.0 | 0.0 | 0.00 | 0.00 | 0.00 | 100 | 1011.1 |
| 20260902211659 | 149 | 36 | 0.0 | 0.0 | 0.00 | 0.00 | 0.00 | 100 | 1011.1 |
| 20260902211137 | 149 | 36 | 0.0 | 0.0 | 0.00 | 0.00 | 0.00 | 100 | 1011.1 |
| 20260902210617 | 150 | 36 | 0.0 | 0.0 | 0.00 | 0.00 | 0.00 | 100 | 1011.2 |
| 20260902210111 | 150 | 36 | 0.0 | 0.0 | 0.00 | 0.00 | 0.00 | 100 | 1011.2 |
| 20260902205604 | 149 | 36 | 0.0 | 1.0 | 0.00 | 0.00 | 0.00 | 100 | 1011.4 |
| 20260902205041 | 149 | 36 | 0.0 | 4.0 | 0.00 | 0.00 | 0.00 | 100 | 1011.5 |
| 20260902204534 | 151 | 36 | 0.0 | 7.0 | 0.00 | 0.00 | 0.00 | 100 | 1011.5 |
| 20260902204030 | 151 | 330 | 0.0 | 7.0 | 0.00 | 0.00 | 0.00 | 100 | 1011.6 |
| 20260902203526 | 151 | 2 | 1.0 | 6.0 | 0.00 | 0.00 | 0.00 | 100 | 1011.6 |
| 20260902203026 | 151 | 11 | 0.0 | 7.0 | 0.00 | 0.00 | 0.00 | 100 | 1011.7 |
| 20260902202526 | 150 | 28 | 3.0 | 7.0 | 0.00 | 0.00 | 0.00 | 100 | 1011.8 |
| 20260902202026 | 150 | 12 | 4.0 | 8.0 | 0.00 | 0.00 | 0.00 | 100 | 1011.9 |
| 20260902201526 | 150 | 312 | 4.0 | 8.0 | 0.00 | 0.00 | 0.00 | 100 | 1011.9 |
| 20260902201026 | 150 | 358 | 0.0 | 5.0 | 0.00 | 0.00 | 0.00 | 100 | 1011.9 |
| 20260902200523 | 150 | 358 | 0.0 | 5.0 | 0.00 | 0.00 | 0.00 | 100 | 1012.1 |
| 20260902200250 | 150 | 289 | 0.0 | 5.0 | 0.00 | 0.00 | 0.00 | 100 | 1012.1 |
| 20260902195516 | 151 | 264 | 1.0 | 6.0 | 0.00 | 0.00 | 0.00 | 100 | 1012.2 |
| 20260902195013 | 151 | 358 | 0.0 | 6.0 | 0.00 | 0.00 | 0.00 | 100 | 1012.2 |
| 20260902194515 | 151 | 180 | 0.0 | 0.0 | 0.00 | 0.00 | 0.00 | 100 | 1012.3 |
| 20260902194009 | 151 | 180 | 0.0 | 0.0 | 0.00 | 0.00 | 0.00 | 100 | 1012.4 |
| 20260902193458 | 151 | 180 | 0.0 | 3.0 | 0.00 | 0.00 | 0.00 | 100 | 1012.5 |
| 20260902192948 | 150 | 180 | 0.0 | 5.0 | 0.00 | 0.00 | 0.00 | 100 | 1012.6 |
| 20260902192443 | 150 | 358 | 1.0 | 5.0 | 0.00 | 0.00 | 0.00 | 100 | 1012.6 |
| 20260902191922 | 151 | 180 | 0.0 | 5.0 | 0.00 | 0.00 | 0.00 | 100 | 1012.9 |
| 20260902191417 | 151 | 188 | 0.0 | 5.0 | 0.00 | 0.00 | 0.00 | 100 | 1012.9 |
| 20260902190858 | 151 | 191 | 0.0 | 6.0 | 0.00 | 0.00 | 0.00 | 100 | 1012.9 |
| 20260902190348 | 151 | 272 | 4.0 | 6.0 | 0.00 | 0.00 | 0.00 | 100 | 1013.0 |
| 20260902185844 | 151 | 350 | 1.0 | 6.0 | 0.00 | 0.00 | 0.00 | 100 | 1013.1 |
| 20260902185325 | 150 | 52 | 0.0 | 7.0 | 0.00 | 0.00 | 0.00 | 100 | 1013.2 |
| 20260902184806 | 151 | 209 | 3.0 | 7.0 | 0.00 | 0.00 | 0.00 | 100 | 1013.3 |
| 20260902184307 | 151 | 295 | 0.0 | 5.0 | 0.00 | 0.00 | 0.00 | 100 | 1013.4 |
| 20260902183757 | 151 | 268 | 0.0 | 4.0 | 0.00 | 0.00 | 0.00 | 100 | 1013.5 |
| 20260902183246 | 151 | 40 | 0.0 | 6.0 | 0.00 | 0.00 | 0.00 | 100 | 1013.6 |
| 20260902182717 | 151 | 52 | 0.0 | 6.0 | 0.00 | 0.00 | 0.00 | 100 | 1013.8 |
| 20260902182217 | 151 | 196 | 0.0 | 6.0 | 0.00 | 0.00 | 0.00 | 100 | 1014.0 |
| 20260902181717 | 151 | 196 | 0.0 | 6.0 | 0.00 | 0.00 | 0.00 | 100 | 1014.1 |
| 20260902181200 | 151 | 241 | 0.0 | 6.0 | 0.00 | 0.00 | 0.00 | 100 | 1014.1 |
| 20260902180657 | 151 | 241 | 1.0 | 6.0 | 0.00 | 0.00 | 0.00 | 100 | 1014.3 |
| 20260902180158 | 151 | 198 | 1.0 | 6.0 | 0.00 | 0.00 | 0.00 | 100 | 1014.3 |
| 20260902175928 | 150 | 127 | 4.0 | 6.0 | 0.00 | 0.00 | 0.00 | 100 | 1014.4 |
| 20260902175158 | 151 | 225 | 1.0 | 6.0 | 0.00 | 0.00 | 0.00 | 100 | 1014.6 |
| 20260902174657 | 151 | 305 | 0.0 | 9.0 | 0.00 | 0.00 | 0.00 | 100 | 1014.6 |
| 20260902174156 | 151 | 355 | 5.0 | 9.0 | 0.00 | 0.00 | 0.00 | 100 | 1014.8 |
| 20260902173658 | 151 | 331 | 2.0 | 8.0 | 0.00 | 0.00 | 0.00 | 100 | 1014.8 |
| 20260902173156 | 151 | 326 | 1.0 | 8.0 | 0.00 | 0.00 | 0.00 | 100 | 1015.0 |
| 20260902172656 | 150 | 344 | 5.0 | 8.0 | 0.00 | 0.00 | 0.00 | 100 | 1015.0 |
| 20260902172156 | 150 | 219 | 3.0 | 6.0 | 0.00 | 0.00 | 0.00 | 100 | 1015.2 |
| 20260902171928 | 150 | 240 | 0.0 | 8.0 | 0.00 | 0.00 | 0.00 | 100 | 1015.2 |
| 20260902171156 | 150 | 0 | 4.0 | 8.0 | 0.00 | 0.00 | 0.00 | 100 | 1015.2 |
| 20260902170928 | 150 | 247 | 4.0 | 8.0 | 0.00 | 0.00 | 0.00 | 100 | 1015.2 |
| 20260902170149 | 150 | 358 | 3.0 | 8.0 | 0.00 | 0.00 | 0.00 | 100 | 1015.3 |
| 20260902165648 | 150 | 295 | 2.0 | 8.0 | 0.00 | 0.00 | 0.00 | 100 | 1015.3 |
| 20260902165148 | 150 | 334 | 2.0 | 8.0 | 0.00 | 0.00 | 0.00 | 100 | 1015.4 |
| 20260902164648 | 150 | 357 | 2.0 | 5.0 | 0.00 | 0.00 | 0.00 | 100 | 1015.6 |
| 20260902164145 | 149 | 236 | 0.0 | 5.0 | 0.00 | 0.00 | 0.00 | 100 | 1015.7 |
| 20260902163643 | 150 | 282 | 2.0 | 6.0 | 0.00 | 0.00 | 0.00 | 100 | 1015.8 |
| 20260902163142 | 149 | 302 | 0.0 | 9.0 | 0.00 | 0.00 | 0.00 | 100 | 1015.8 |
| 20260902162632 | 149 | 184 | 5.0 | 9.0 | 0.00 | 0.00 | 0.00 | 100 | 1015.9 |
| 20260902162128 | 149 | 219 | 4.0 | 9.0 | 0.00 | 0.00 | 0.00 | 100 | 1015.9 |
| 20260902161857 | 149 | 142 | 0.0 | 9.0 | 0.00 | 0.00 | 0.00 | 100 | 1015.9 |
| 20260902161113 | 149 | 201 | 0.0 | 6.0 | 0.00 | 0.00 | 0.00 | 100 | 1015.8 |
| 20260902160611 | 149 | 288 | 1.0 | 8.0 | 0.00 | 0.00 | 0.00 | 100 | 1015.8 |
| 20260902160605 | 149 | 338 | 2.0 | 8.0 | 0.00 | 0.00 | 0.00 | 100 | 1015.8 |
| 20260902155603 | 149 | 11 | 0.0 | 5.0 | 0.00 | 0.00 | 0.00 | 100 | 1015.9 |
| 20260902155047 | 148 | 358 | 1.0 | 5.0 | 0.00 | 0.00 | 0.00 | 100 | 1015.9 |
| 20260902154818 | 148 | 118 | 1.0 | 6.0 | 0.00 | 0.00 | 0.00 | 100 | 1015.8 |
| 20260902154316 | 148 | 227 | 2.0 | 7.0 | 0.00 | 0.00 | 0.00 | 100 | 1015.9 |
| 20260902153540 | 148 | 313 | 0.0 | 7.0 | 0.00 | 0.00 | 0.00 | 100 | 1015.9 |
| 20260902153302 | 148 | 291 | 3.0 | 6.0 | 0.00 | 0.00 | 0.00 | 100 | 1015.9 |
| 20260902152532 | 148 | 262 | 1.0 | 6.0 | 0.00 | 0.00 | 0.00 | 100 | 1015.9 |
| 20260902152011 | 147 | 240 | 3.0 | 7.0 | 0.00 | 0.00 | 0.00 | 100 | 1015.9 |
| 20260902151507 | 147 | 302 | 0.0 | 7.0 | 0.00 | 0.00 | 0.00 | 100 | 1015.8 |
| 20260902150956 | 147 | 345 | 1.0 | 5.0 | 0.00 | 0.00 | 0.00 | 100 | 1015.8 |
| 20260902150449 | 147 | 267 | 1.0 | 6.0 | 0.00 | 0.00 | 0.00 | 100 | 1015.7 |
| 20260902145941 | 147 | 223 | 2.0 | 6.0 | 0.00 | 0.00 | 0.00 | 100 | 1015.7 |
| 20260902145424 | 147 | 175 | 1.0 | 6.0 | 0.00 | 0.00 | 0.00 | 100 | 1015.7 |
| 20260902144918 | 146 | 337 | 3.0 | 7.0 | 0.00 | 0.00 | 0.00 | 100 | 1015.7 |
| 20260902144417 | 146 | 307 | 1.0 | 10.0 | 0.00 | 0.00 | 0.00 | 100 | 1015.7 |
| 20260902143914 | 146 | 63 | 3.0 | 10.0 | 0.00 | 0.00 | 0.00 | 100 | 1015.7 |
| 20260902143414 | 146 | 2 | 2.0 | 7.0 | 0.00 | 0.00 | 0.00 | 100 | 1015.7 |
| 20260902143140 | 146 | 210 | 1.0 | 8.0 | 0.00 | 0.00 | 0.00 | 100 | 1015.7 |
| 20260902142409 | 146 | 217 | 0.0 | 8.0 | 0.00 | 0.00 | 0.00 | 100 | 1015.6 |
| 20260902141909 | 146 | 199 | 0.0 | 8.0 | 0.00 | 0.00 | 0.00 | 100 | 1015.7 |
| 20260902141404 | 146 | 213 | 3.0 | 8.0 | 0.00 | 0.00 | 0.00 | 100 | 1015.6 |
| 20260902140859 | 146 | 151 | 3.0 | 7.0 | 0.00 | 0.00 | 0.00 | 100 | 1015.7 |
| 20260902140359 | 146 | 268 | 5.0 | 7.0 | 0.00 | 0.00 | 0.00 | 100 | 1015.7 |
| 20260902135858 | 146 | 299 | 1.0 | 5.0 | 0.00 | 0.00 | 0.00 | 100 | 1015.7 |
| 20260902135357 | 145 | 154 | 0.0 | 4.0 | 0.00 | 0.00 | 0.00 | 100 | 1015.6 |
| 20260902134856 | 145 | 206 | 0.0 | 4.0 | 0.00 | 0.00 | 0.00 | 100 | 1015.7 |
| 20260902134344 | 145 | 208 | 0.0 | 0.0 | 0.00 | 0.00 | 0.00 | 100 | 1015.6 |
| 20260902133832 | 145 | 208 | 0.0 | 3.0 | 0.00 | 0.00 | 0.00 | 100 | 1015.6 |
| 20260902133308 | 145 | 208 | 0.0 | 3.0 | 0.00 | 0.00 | 0.00 | 100 | 1015.6 |
| 20260902132758 | 145 | 135 | 0.0 | 0.0 | 0.00 | 0.00 | 0.00 | 100 | 1015.6 |
| 20260902132252 | 145 | 135 | 0.0 | 0.0 | 0.00 | 0.00 | 0.00 | 100 | 1015.4 |
| 20260902132020 | 144 | 135 | 0.0 | 0.0 | 0.00 | 0.00 | 0.00 | 100 | 1015.3 |
| 20260902131521 | 144 | 135 | 0.0 | 0.0 | 0.00 | 0.00 | 0.00 | 100 | 1015.3 |
| 20260902130738 | 144 | 135 | 0.0 | 0.0 | 0.00 | 0.00 | 0.00 | 100 | 1015.2 |
| 20260902130228 | 144 | 135 | 0.0 | 0.0 | 0.00 | 0.00 | 0.00 | 100 | 1015.2 |
| 20260902125725 | 144 | 135 | 0.0 | 0.0 | 0.00 | 0.00 | 0.00 | 100 | 1015.1 |
| 20260902125211 | 144 | 135 | 0.0 | 0.0 | 0.00 | 0.00 | 0.00 | 100 | 1015.2 |
| 20260902124659 | 143 | 135 | 0.0 | 0.0 | 0.00 | 0.00 | 0.00 | 100 | 1015.1 |
| 20260902124148 | 143 | 135 | 0.0 | 0.0 | 0.00 | 0.00 | 0.00 | 100 | 1015.1 |
| 20260902123635 | 143 | 135 | 0.0 | 0.0 | 0.00 | 0.00 | 0.00 | 100 | 1015.1 |
| 20260902123134 | 143 | 135 | 0.0 | 0.0 | 0.00 | 0.00 | 0.00 | 100 | 1015.0 |
| 20260902123129 | 143 | 135 | 0.0 | 0.0 | 0.00 | 0.00 | 0.00 | 100 | 1015.0 |
| 20260902122126 | 143 | 135 | 0.0 | 0.0 | 0.00 | 0.00 | 0.00 | 100 | 1015.0 |
| 20260902121610 | 143 | 135 | 0.0 | 0.0 | 0.00 | 0.00 | 0.00 | 100 | 1014.8 |
| 20260902121048 | 143 | 135 | 0.0 | 0.0 | 0.00 | 0.00 | 0.00 | 100 | 1014.9 |
| 20260902120528 | 143 | 135 | 0.0 | 0.0 | 0.00 | 0.00 | 0.00 | 100 | 1014.9 |
| 20260902120026 | 143 | 135 | 0.0 | 0.0 | 0.00 | 0.00 | 0.00 | 100 | 1014.9 |
| 20260902115527 | 143 | 135 | 0.0 | 0.0 | 0.00 | 0.00 | 0.00 | 100 | 1014.9 |
| 20260902115016 | 143 | 135 | 0.0 | 0.0 | 0.00 | 0.00 | 0.00 | 100 | 1014.8 |
| 20260902114502 | 143 | 135 | 0.0 | 0.0 | 0.00 | 0.00 | 0.00 | 100 | 1014.7 |
| 20260902113941 | 143 | 135 | 0.0 | 0.0 | 0.00 | 0.00 | 0.00 | 100 | 1014.7 |
| 20260902113916 | 143 | 135 | 0.0 | 0.0 | 0.00 | 0.00 | 0.00 | 100 | 1014.7 |
| 20260902112856 | 143 | 135 | 0.0 | 0.0 | 0.00 | 0.00 | 0.00 | 100 | 1014.7 |
| 20260902112333 | 143 | 135 | 0.0 | 0.0 | 0.00 | 0.00 | 0.00 | 100 | 1014.7 |
| 20260902111812 | 142 | 135 | 0.0 | 0.0 | 0.00 | 0.00 | 0.00 | 100 | 1014.7 |
| 20260902111305 | 143 | 135 | 0.0 | 0.0 | 0.00 | 0.00 | 0.00 | 100 | 1014.7 |
| 20260902110800 | 143 | 135 | 0.0 | 0.0 | 0.00 | 0.00 | 0.00 | 100 | 1014.7 |
| 20260902110252 | 143 | 135 | 0.0 | 0.0 | 0.00 | 0.00 | 0.00 | 100 | 1014.7 |
| 20260902105750 | 143 | 135 | 0.0 | 0.0 | 0.00 | 0.00 | 0.00 | 100 | 1014.6 |
| 20260902105242 | 144 | 135 | 0.0 | 0.0 | 0.00 | 0.00 | 0.00 | 100 | 1014.7 |
| 20260902104742 | 143 | 135 | 0.0 | 0.0 | 0.00 | 0.00 | 0.00 | 100 | 1014.7 |
| 20260902104235 | 144 | 135 | 0.0 | 0.0 | 0.00 | 0.00 | 0.00 | 100 | 1014.7 |
| 20260902103720 | 143 | 135 | 0.0 | 0.0 | 0.00 | 0.00 | 0.00 | 100 | 1014.7 |
| 20260902103213 | 144 | 135 | 0.0 | 0.0 | 0.00 | 0.00 | 0.00 | 100 | 1014.7 |
| 20260902102651 | 144 | 135 | 0.0 | 0.0 | 0.00 | 0.00 | 0.00 | 100 | 1014.7 |
| 20260902102130 | 144 | 135 | 0.0 | 0.0 | 0.00 | 0.00 | 0.00 | 100 | 1014.7 |
| 20260902102108 | 143 | 135 | 0.0 | 0.0 | 0.00 | 0.00 | 0.00 | 100 | 1014.7 |
| 20260902101045 | 143 | 135 | 0.0 | 0.0 | 0.00 | 0.00 | 0.00 | 100 | 1014.7 |
| 20260902100759 | 143 | 135 | 0.0 | 0.0 | 0.00 | 0.00 | 0.00 | 100 | 1014.6 |
| 20260902100026 | 143 | 135 | 0.0 | 0.0 | 0.00 | 0.00 | 0.00 | 100 | 1014.6 |
| 20260902095524 | 143 | 135 | 0.0 | 0.0 | 0.00 | 0.00 | 0.00 | 100 | 1014.7 |
| 20260902095004 | 143 | 135 | 0.0 | 0.0 | 0.00 | 0.00 | 0.00 | 100 | 1014.7 |
| 20260902094441 | 143 | 135 | 0.0 | 0.0 | 0.00 | 0.00 | 0.00 | 100 | 1014.7 |
| 20260902094207 | 143 | 135 | 0.0 | 0.0 | 0.00 | 0.00 | 0.00 | 100 | 1014.7 |
| 20260902093430 | 143 | 135 | 0.0 | 0.0 | 0.00 | 0.00 | 0.00 | 100 | 1014.7 |
| 20260902092916 | 143 | 135 | 0.0 | 0.0 | 0.00 | 0.00 | 0.00 | 100 | 1014.7 |
| 20260902092629 | 143 | 135 | 0.0 | 0.0 | 0.00 | 0.00 | 0.00 | 100 | 1014.7 |
| 20260902091856 | 143 | 135 | 0.0 | 0.0 | 0.00 | 0.00 | 0.00 | 100 | 1014.7 |
| 20260902091358 | 143 | 135 | 0.0 | 0.0 | 0.00 | 0.00 | 0.00 | 100 | 1014.7 |
| 20260902091055 | 143 | 135 | 0.0 | 0.0 | 0.00 | 0.00 | 0.00 | 100 | 1014.8 |
| 20260902090302 | 143 | 135 | 0.0 | 0.0 | 0.00 | 0.00 | 0.00 | 100 | 1014.8 |
| 20260902085746 | 144 | 135 | 0.0 | 0.0 | 0.00 | 0.00 | 0.00 | 100 | 1014.9 |
| 20260902085226 | 143 | 135 | 0.0 | 0.0 | 0.00 | 0.00 | 0.00 | 100 | 1014.9 |
| 20260902084715 | 143 | 135 | 0.0 | 0.0 | 0.00 | 0.00 | 0.00 | 100 | 1014.8 |
| 20260902084212 | 143 | 135 | 0.0 | 0.0 | 0.00 | 0.00 | 0.00 | 100 | 1014.8 |
| 20260902083922 | 143 | 135 | 0.0 | 0.0 | 0.00 | 0.00 | 0.00 | 100 | 1014.9 |
| 20260902083129 | 143 | 135 | 0.0 | 0.0 | 0.00 | 0.00 | 0.00 | 100 | 1014.8 |
| 20260902082615 | 143 | 135 | 0.0 | 0.0 | 0.00 | 0.00 | 0.00 | 100 | 1014.8 |
| 20260902082100 | 143 | 135 | 0.0 | 0.0 | 0.00 | 0.00 | 0.00 | 100 | 1014.8 |
| 20260902081828 | 143 | 135 | 0.0 | 0.0 | 0.00 | 0.00 | 0.00 | 100 | 1014.9 |
| 20260902081056 | 143 | 135 | 0.0 | 0.0 | 0.00 | 0.00 | 0.00 | 100 | 1014.9 |
| 20260902080547 | 143 | 135 | 0.0 | 0.0 | 0.00 | 0.00 | 0.00 | 100 | 1014.9 |
| 20260902080025 | 143 | 135 | 0.0 | 0.0 | 0.00 | 0.00 | 0.00 | 100 | 1014.9 |
| 20260902075504 | 143 | 135 | 0.0 | 0.0 | 0.00 | 0.00 | 0.00 | 100 | 1014.9 |
| 20260902074941 | 143 | 135 | 0.0 | 0.0 | 0.00 | 0.00 | 0.00 | 100 | 1014.9 |
| 20260902074420 | 143 | 135 | 0.0 | 0.0 | 0.00 | 0.00 | 0.00 | 100 | 1015.0 |
| 20260902073858 | 143 | 135 | 0.0 | 0.0 | 0.00 | 0.00 | 0.00 | 100 | 1015.0 |
| 20260902073354 | 143 | 135 | 0.0 | 0.0 | 0.00 | 0.00 | 0.00 | 100 | 1015.0 |
| 20260902072853 | 143 | 135 | 0.0 | 0.0 | 0.00 | 0.00 | 0.00 | 100 | 1015.1 |
| 20260902072337 | 143 | 135 | 0.0 | 0.0 | 0.00 | 0.00 | 0.00 | 100 | 1015.1 |
| 20260902071838 | 144 | 135 | 0.0 | 0.0 | 0.00 | 0.00 | 0.00 | 100 | 1015.1 |
| 20260902071326 | 144 | 135 | 0.0 | 0.0 | 0.00 | 0.00 | 0.00 | 100 | 1015.1 |
| 20260902070818 | 144 | 135 | 0.0 | 0.0 | 0.00 | 0.00 | 0.00 | 100 | 1015.3 |
| 20260902070255 | 144 | 135 | 0.0 | 0.0 | 0.00 | 0.00 | 0.00 | 100 | 1015.3 |
| 20260902065733 | 144 | 135 | 0.0 | 0.0 | 0.00 | 0.00 | 0.00 | 100 | 1015.3 |
| 20260902065212 | 144 | 135 | 0.0 | 0.0 | 0.00 | 0.00 | 0.00 | 100 | 1015.2 |
| 20260902064709 | 144 | 135 | 0.0 | 0.0 | 0.00 | 0.00 | 0.00 | 100 | 1015.2 |
| 20260902064154 | 144 | 135 | 0.0 | 0.0 | 0.00 | 0.00 | 0.00 | 100 | 1015.2 |
| 20260902063650 | 144 | 135 | 0.0 | 0.0 | 0.00 | 0.00 | 0.00 | 100 | 1015.1 |
| 20260902063129 | 144 | 135 | 0.0 | 0.0 | 0.00 | 0.00 | 0.00 | 100 | 1015.1 |
| 20260902062626 | 144 | 135 | 0.0 | 0.0 | 0.00 | 0.00 | 0.00 | 100 | 1015.1 |
| 20260902062125 | 144 | 135 | 0.0 | 0.0 | 0.00 | 0.00 | 0.00 | 100 | 1015.1 |
| 20260902061618 | 144 | 135 | 0.0 | 0.0 | 0.00 | 0.00 | 0.00 | 100 | 1015.1 |
| 20260902061114 | 144 | 135 | 0.0 | 0.0 | 0.00 | 0.00 | 0.00 | 100 | 1015.1 |
| 20260902060555 | 145 | 135 | 0.0 | 0.0 | 0.00 | 0.00 | 0.00 | 100 | 1015.1 |
| 20260902060049 | 144 | 135 | 0.0 | 0.0 | 0.00 | 0.00 | 0.00 | 100 | 1015.1 |
| 20260902055546 | 145 | 135 | 0.0 | 0.0 | 0.00 | 0.00 | 0.00 | 100 | 1015.0 |
| 20260902055045 | 145 | 135 | 0.0 | 2.0 | 0.00 | 0.00 | 0.00 | 100 | 1015.1 |
| 20260902054529 | 145 | 135 | 0.0 | 2.0 | 0.00 | 0.00 | 0.00 | 100 | 1015.1 |
| 20260902054026 | 145 | 113 | 0.0 | 0.0 | 0.00 | 0.00 | 0.00 | 100 | 1015.0 |
| 20260902053740 | 145 | 113 | 0.0 | 0.0 | 0.00 | 0.00 | 0.00 | 100 | 1015.0 |
| 20260902052949 | 145 | 113 | 0.0 | 0.0 | 0.00 | 0.00 | 0.00 | 100 | 1015.0 |
| 20260902052425 | 145 | 113 | 0.0 | 0.0 | 0.00 | 0.00 | 0.00 | 100 | 1015.0 |
| 20260902051926 | 145 | 113 | 0.0 | 0.0 | 0.00 | 0.00 | 0.00 | 100 | 1014.9 |
| 20260902051641 | 145 | 113 | 0.0 | 0.0 | 0.00 | 0.00 | 0.00 | 100 | 1014.9 |
| 20260902050906 | 145 | 113 | 0.0 | 3.0 | 0.00 | 0.00 | 0.00 | 100 | 1015.0 |
| 20260902050636 | 145 | 113 | 0.0 | 5.0 | 0.00 | 0.00 | 0.00 | 100 | 1015.0 |
| 20260902045858 | 145 | 163 | 1.0 | 8.0 | 0.00 | 0.00 | 0.00 | 100 | 1015.0 |
| 20260902045627 | 145 | 149 | 0.0 | 8.0 | 0.00 | 0.00 | 0.00 | 100 | 1015.0 |
| 20260902044857 | 145 | 133 | 4.0 | 6.0 | 0.00 | 0.00 | 0.00 | 100 | 1015.0 |
| 20260902044628 | 145 | 99 | 1.0 | 6.0 | 0.00 | 0.00 | 0.00 | 100 | 1015.0 |
| 20260902044117 | 145 | 143 | 0.0 | 5.0 | 0.00 | 0.00 | 0.00 | 100 | 1015.0 |
| 20260902043553 | 146 | 154 | 2.0 | 8.0 | 0.00 | 0.00 | 0.00 | 100 | 1015.0 |
| 20260902043051 | 146 | 140 | 5.0 | 8.0 | 0.00 | 0.00 | 0.00 | 100 | 1015.0 |
| 20260902042320 | 146 | 113 | 5.0 | 7.0 | 0.00 | 0.00 | 0.00 | 100 | 1015.0 |
| 20260902042045 | 146 | 129 | 0.0 | 5.0 | 0.00 | 0.00 | 0.00 | 100 | 1015.0 |
| 20260902041544 | 146 | 143 | 2.0 | 5.0 | 0.00 | 0.00 | 0.00 | 100 | 1014.9 |
| 20260902040809 | 146 | 149 | 0.0 | 0.0 | 0.00 | 0.00 | 0.00 | 100 | 1014.9 |
| 20260902040245 | 146 | 149 | 0.0 | 5.0 | 0.00 | 0.00 | 0.00 | 100 | 1014.9 |
| 20260902035723 | 146 | 149 | 0.0 | 5.0 | 0.00 | 0.00 | 0.00 | 100 | 1014.8 |
| 20260902035202 | 146 | 168 | 0.0 | 0.0 | 0.00 | 0.00 | 0.00 | 100 | 1014.8 |
| 20260902034638 | 146 | 168 | 0.0 | 0.0 | 0.00 | 0.00 | 0.00 | 100 | 1014.7 |
| 20260902034117 | 146 | 168 | 0.0 | 0.0 | 0.00 | 0.00 | 0.00 | 100 | 1014.6 |
| 20260902033604 | 146 | 168 | 0.0 | 3.0 | 0.00 | 0.00 | 0.00 | 100 | 1014.5 |
| 20260902033057 | 146 | 168 | 0.0 | 3.0 | 0.00 | 0.00 | 0.00 | 100 | 1014.5 |
| 20260902032557 | 146 | 120 | 0.0 | 0.0 | 0.00 | 0.00 | 0.00 | 100 | 1014.3 |
| 20260902032034 | 146 | 120 | 0.0 | 0.0 | 0.00 | 0.00 | 0.00 | 100 | 1014.4 |
| 20260902031526 | 146 | 120 | 0.0 | 0.0 | 0.00 | 0.00 | 0.00 | 100 | 1014.3 |
| 20260902031018 | 146 | 120 | 0.0 | 0.0 | 0.00 | 0.00 | 0.00 | 100 | 1014.2 |
| 20260902030515 | 146 | 120 | 0.0 | 0.0 | 0.00 | 0.00 | 0.00 | 100 | 1014.0 |
| 20260902025954 | 146 | 120 | 0.0 | 0.0 | 0.00 | 0.00 | 0.00 | 100 | 1014.0 |
| 20260902025431 | 146 | 120 | 0.0 | 0.0 | 0.00 | 0.00 | 0.00 | 100 | 1014.0 |
| 20260902024910 | 146 | 120 | 0.0 | 3.0 | 0.00 | 0.00 | 0.00 | 100 | 1014.0 |
| 20260902024340 | 146 | 120 | 0.0 | 3.0 | 0.00 | 0.00 | 0.00 | 100 | 1013.9 |
| 20260902023836 | 146 | 129 | 0.0 | 6.0 | 0.00 | 0.00 | 0.00 | 100 | 1013.6 |
| 20260902023327 | 146 | 144 | 0.0 | 5.0 | 0.00 | 0.00 | 0.00 | 100 | 1013.6 |
| 20260902022827 | 146 | 170 | 0.0 | 4.0 | 0.00 | 0.00 | 0.00 | 100 | 1013.5 |
| 20260902022306 | 146 | 181 | 0.0 | 6.0 | 0.00 | 0.00 | 0.00 | 100 | 1013.3 |
| 20260902021805 | 146 | 157 | 1.0 | 8.0 | 0.00 | 0.00 | 0.00 | 100 | 1013.3 |
| 20260902021302 | 146 | 120 | 0.0 | 8.0 | 0.00 | 0.00 | 0.00 | 100 | 1013.2 |
| 20260902020756 | 147 | 154 | 2.0 | 5.0 | 0.00 | 0.00 | 0.00 | 100 | 1013.2 |
| 20260902020257 | 147 | 137 | 1.0 | 5.0 | 0.00 | 0.00 | 0.00 | 100 | 1013.2 |
| 20260902015729 | 147 | 111 | 0.0 | 8.0 | 0.00 | 0.00 | 0.00 | 100 | 1013.1 |
| 20260902015217 | 147 | 171 | 4.0 | 8.0 | 0.00 | 0.00 | 0.00 | 100 | 1013.0 |
| 20260902014716 | 147 | 135 | 0.0 | 8.0 | 0.00 | 0.00 | 0.00 | 100 | 1013.0 |
| 20260902014216 | 147 | 144 | 0.0 | 8.0 | 0.00 | 0.00 | 0.00 | 100 | 1012.8 |
| 20260902013705 | 147 | 165 | 0.0 | 8.0 | 0.00 | 0.00 | 0.00 | 100 | 1012.6 |
| 20260902013156 | 147 | 136 | 0.0 | 8.0 | 0.00 | 0.00 | 0.00 | 100 | 1012.6 |
| 20260902012655 | 147 | 130 | 4.0 | 7.0 | 0.00 | 0.00 | 0.00 | 100 | 1012.6 |
| 20260902012427 | 147 | 130 | 0.0 | 7.0 | 0.00 | 0.00 | 0.00 | 100 | 1012.4 |
| 20260902011648 | 147 | 119 | 2.0 | 6.0 | 0.00 | 0.00 | 0.00 | 100 | 1012.4 |
| 20260902011147 | 147 | 97 | 1.0 | 5.0 | 0.00 | 0.00 | 0.00 | 100 | 1012.4 |
| 20260902010642 | 147 | 94 | 0.0 | 6.0 | 0.00 | 0.00 | 0.00 | 100 | 1012.3 |
| 20260902010411 | 147 | 50 | 2.0 | 6.0 | 0.00 | 0.00 | 0.00 | 100 | 1012.3 |
| 20260902005858 | 148 | 112 | 0.0 | 5.0 | 0.00 | 0.00 | 0.00 | 100 | 1012.3 |
| 20260902005120 | 148 | 150 | 1.0 | 9.0 | 0.00 | 0.00 | 0.00 | 100 | 1012.3 |
| 20260902004838 | 148 | 151 | 0.0 | 9.0 | 0.00 | 0.00 | 0.00 | 100 | 1012.4 |
| 20260902004107 | 148 | 140 | 0.0 | 8.0 | 0.00 | 0.00 | 0.00 | 100 | 1012.3 |
| 20260902003834 | 148 | 113 | 3.0 | 8.0 | 0.00 | 0.00 | 0.00 | 100 | 1012.4 |
| 20260902003558 | 148 | 165 | 3.0 | 6.0 | 0.00 | 0.00 | 0.00 | 100 | 1012.5 |
| 20260902002557 | 148 | 151 | 0.0 | 9.0 | 0.00 | 0.00 | 0.00 | 100 | 1012.4 |
| 20260902002051 | 148 | 151 | 0.0 | 9.0 | 0.00 | 0.00 | 0.00 | 100 | 1012.4 |
| 20260902001549 | 148 | 116 | 2.0 | 9.0 | 0.00 | 0.00 | 0.00 | 100 | 1012.4 |
| 20260902001049 | 148 | 120 | 0.0 | 6.0 | 0.00 | 0.00 | 0.00 | 100 | 1012.4 |
| 20260902000542 | 148 | 70 | 0.0 | 6.0 | 0.00 | 0.00 | 0.00 | 100 | 1012.4 |
| 20260902000029 | 148 | 157 | 0.0 | 6.0 | 0.00 | 0.00 | 0.00 | 100 | 1012.4 |
| 20260901235529 | 148 | 132 | 0.0 | 6.0 | 0.00 | 0.00 | 0.00 | 100 | 1012.4 |
| 20260901235026 | 148 | 104 | 2.0 | 6.0 | 0.00 | 0.00 | 0.00 | 100 | 1012.4 |
| 20260901234526 | 148 | 137 | 1.0 | 8.0 | 0.00 | 0.00 | 0.00 | 100 | 1012.4 |
| 20260901234027 | 149 | 74 | 0.0 | 8.0 | 0.00 | 0.00 | 0.00 | 100 | 1012.3 |
| 20260901233516 | 149 | 99 | 3.0 | 8.0 | 0.00 | 0.00 | 0.00 | 100 | 1012.2 |
| 20260901233015 | 149 | 144 | 2.0 | 9.0 | 0.00 | 0.00 | 0.00 | 100 | 1012.3 |
| 20260901232740 | 149 | 122 | 0.0 | 10.0 | 0.00 | 0.00 | 0.00 | 100 | 1012.3 |
| 20260901232006 | 149 | 77 | 4.0 | 10.0 | 0.00 | 0.00 | 0.00 | 100 | 1012.3 |
| 20260901231505 | 150 | 5 | 4.0 | 9.0 | 0.00 | 0.00 | 0.00 | 100 | 1012.3 |
| 20260901231235 | 149 | 165 | 4.0 | 7.0 | 0.00 | 0.00 | 0.00 | 100 | 1012.2 |
| 20260901230504 | 150 | 163 | 0.0 | 6.0 | 0.00 | 0.00 | 0.00 | 100 | 1012.2 |
| 20260901230004 | 150 | 85 | 0.0 | 6.0 | 0.00 | 0.00 | 0.00 | 100 | 1012.3 |
| 20260901225458 | 150 | 150 | 1.0 | 8.0 | 0.00 | 0.00 | 0.00 | 100 | 1012.3 |
| 20260901225228 | 150 | 161 | 6.0 | 8.0 | 0.00 | 0.00 | 0.00 | 100 | 1012.2 |
| 20260901224456 | 149 | 157 | 2.0 | 7.0 | 0.00 | 0.00 | 0.00 | 100 | 1012.2 |
| 20260901223956 | 149 | 9 | 0.0 | 9.0 | 0.00 | 0.00 | 0.00 | 100 | 1012.2 |
| 20260901223456 | 149 | 120 | 1.0 | 9.0 | 0.00 | 0.00 | 0.00 | 100 | 1012.3 |